This demonstration page uses our WeatherBlox Daily Observations layout. Learn more.

Hourly Observations for January 24, 2019

Temp ( °F °C ) Dew Point ( °F °C ) Humidity (%) Winds ( mph kmh ) Pressure ( in mb ) Visibility ( mi km ) Precip ( " mm )
12:15 am 00:15 Clear 26 -3.3 22 -5.4 86 86 WNW 8 13 30.09 1019 10 16.0934 0 0
12:35 am 00:35 Clear 27 -3 23 -5 86 86 WNW 6 9 30.09 1019 10 16.0934 0 0
12:55 am 00:55 Mostly Cloudy 29 -1.8 25 -4 85 85 NW 8 13 30.09 1019 10 16.0934 0 0
1:15 am 01:15 Cloudy 31 -0.3 26 -3.5 79 79 NW 9 15 30.06 1018 10 16.0934 0 0
1:35 am 01:35 Cloudy 32 -0.1 26 -3.5 78 78 NW 10 17 30.06 1018 10 16.0934 0 0
1:55 am 01:55 Mostly Cloudy 31 -0.3 26 -3.6 79 79 NNW 9 15 30.09 1019 10 16.0934 0 0
2:15 am 02:15 Partly Cloudy 31 -0.7 25 -3.8 80 80 NNW 9 15 30.12 1020 10 16.0934 0 0
2:35 am 02:35 Partly Cloudy 30 -1.2 25 -4 82 82 NNW 9 15 30.12 1020 10 16.0934 0 0
2:55 am 02:55 Partly Cloudy 29 -1.5 24 -4.2 82 82 N 9 15 30.15 1021 10 16.0934 0 0
3:15 am 03:15 Clear 28 -2.2 24 -4.6 84 84 N 10 17 30.15 1021 10 16.0934 0 0
3:35 am 03:35 Clear 27 -2.6 24 -4.7 86 86 N 13 20 30.15 1021 10 16.0934 0 0
3:55 am 03:55 Clear 27 -2.7 24 -4.7 86 86 N 13 20 30.18 1022 10 16.0934 0 0
4:15 am 04:15 Mostly Cloudy 27 -2.8 24 -4.5 88 88 N 10 17 30.18 1022 10 16.0934 0 0
4:35 am 04:35 Cloudy 28 -2 25 -4 86 86 N 12 19 30.18 1022 10 16.0934 0 0
4:55 am 04:55 Cloudy 29 -1.5 23 -5 77 77 N 17 28 30.18 1022 10 16.0934 0 0
5:15 am 05:15 Cloudy 28 -2 22 -5.6 77 77 N 20 31 30.21 1023 10 16.0934 0 0
5:35 am 05:35 Cloudy 28 -2.5 21 -6.3 75 75 N 17 28 30.21 1023 10 16.0934 0 0
5:55 am 05:55 Cloudy 27 -2.7 21 -6.1 78 78 N 22 35 30.27 1025 10 16.0934 0 0
6:15 am 06:15 Cloudy 27 -3 21 -5.9 81 81 N 17 28 30.27 1025 10 16.0934 0 0
6:35 am 06:35 Mostly Cloudy 26 -3.3 21 -6.2 81 81 N 17 28 30.27 1025 10 16.0934 0 0
6:55 am 06:55 Mostly Cloudy 25 -4.1 18 -7.8 76 76 NNW 12 19 30.27 1025 10 16.0934 0 0
7:15 am 07:15 Cloudy 24 -4.7 17 -8.2 77 77 N 13 20 30.27 1025 10 16.0934 0 0
7:35 am 07:35 Mostly Cloudy 22 -5.5 17 -8.3 81 81 N 13 20 30.33 1027 10 16.0934 0 0
7:55 am 07:55 Mostly Cloudy 22 -5.7 17 -8.2 83 83 N 13 20 30.36 1028 10 16.0934 0 0
8:15 am 08:15 Cloudy 22 -5.6 13 -10.3 70 70 N 16 26 30.36 1028 10 16.0934 0 0
8:35 am 08:35 Cloudy 21 -6.2 14 -9.8 76 76 NNW 16 26 30.36 1028 10 16.0934 0 0
8:55 am 08:55 Cloudy 20 -6.5 15 -9.6 79 79 N 16 26 30.39 1029 10 16.0934 0 0
9:15 am 09:15 Cloudy 20 -6.8 15 -9.6 81 81 N 14 22 30.39 1029 10 16.0934 0 0
9:35 am 09:35 Cloudy 19 -7.2 13 -10.6 77 77 N 21 33 30.45 1031 10 16.0934 0 0
9:55 am 09:55 Mostly Cloudy 18 -7.6 12 -11 77 77 N 18 30 30.45 1031 10 16.0934 0 0
10:15 am 10:15 Partly Cloudy 19 -7.5 13 -10.7 78 78 N 17 28 30.48 1032 10 16.0934 0 0
10:35 am 10:35 Mostly Cloudy with Scattered Snow Showers 19 -7.4 13 -10.5 79 79 NNW 16 26 30.48 1032 7 11.26538 0 0
10:55 am 10:55 Partly Cloudy 18 -8 8 -13.2 67 67 N 18 30 30.48 1032 10 16.0934 0 0
11:15 am 11:15 Partly Cloudy 17 -8.5 7 -13.8 66 66 N 20 31 30.48 1032 10 16.0934 0 0
11:35 am 11:35 Sunny 17 -8.4 8 -13.6 66 66 N 18 30 30.48 1032 10 16.0934 0 0
11:55 am 11:55 Sunny 17 -8.2 9 -13 69 69 N 14 22 30.48 1032 10 16.0934 0 0
12:15 pm 12:15 Sunny 17 -8.1 9 -12.8 69 69 N 14 22 30.48 1032 10 16.0934 0 0
12:35 pm 12:35 Sunny 18 -7.6 8 -13.5 63 63 NNW 15 24 30.48 1032 10 16.0934 0 0
12:55 pm 12:55 Sunny 18 -7.7 7 -13.7 62 62 NNW 14 22 30.48 1032 10 16.0934 0 0
1:15 pm 13:15 Sunny 19 -7.3 6 -14.5 57 57 NNW 20 31 30.48 1032 10 16.0934 0 0
1:35 pm 13:35 Sunny 19 -7.5 6 -14.3 59 59 NNW 16 26 30.48 1032 10 16.0934 0 0
1:55 pm 13:55 Sunny 19 -7 7 -13.8 59 59 NNW 12 19 30.48 1032 10 16.0934 0 0
2:15 pm 14:15 Sunny 20 -6.6 7 -13.7 57 57 NNW 12 19 30.45 1031 10 16.0934 0 0
2:35 pm 14:35 Sunny 20 -6.7 6 -14.6 54 54 NNW 14 22 30.42 1030 10 16.0934 0 0
2:55 pm 14:55 Sunny 21 -6.3 7 -13.8 56 56 WNW 13 20 30.42 1030 10 16.0934 0 0
3:15 pm 15:15 Sunny 21 -6.3 7 -13.8 56 56 NNW 10 17 30.42 1030 10 16.0934 0 0
3:35 pm 15:35 Sunny 22 -5.7 9 -12.9 57 57 NW 9 15 30.45 1031 10 16.0934 0 0
3:55 pm 15:55 Sunny 22 -5.5 8 -13.2 55 55 NW 15 24 30.42 1030 10 16.0934 0 0
4:15 pm 16:15 Sunny 22 -5.7 7 -13.7 54 54 NW 13 20 30.42 1030 10 16.0934 0 0
4:35 pm 16:35 Sunny 22 -5.7 9 -13 57 57 NW 9 15 30.42 1030 10 16.0934 0 0
4:55 pm 16:55 Sunny 21 -6 9 -12.9 59 59 NW 9 15 30.42 1030 10 16.0934 0 0
5:15 pm 17:15 Sunny 20 -6.5 9 -12.6 62 62 NW 6 9 30.42 1030 10 16.0934 0 0
5:35 pm 17:35 Sunny 19 -7.3 8 -13.1 64 64 Calm 30.45 1031 10 16.0934 0 0
5:55 pm 17:55 Clear 18 -8 8 -13.2 67 67 Calm 30.42 1030 10 16.0934 0 0
6:15 pm 18:15 Clear 17 -8.1 8 -13.1 68 68 Calm 30.42 1030 10 16.0934 0 0
6:35 pm 18:35 Clear 16 -8.9 8 -13.5 70 70 Calm 30.42 1030 10 16.0934 0 0
6:55 pm 18:55 Clear 15 -9.2 8 -13.5 71 71 Calm 30.42 1030 10 16.0934 0 0
7:15 pm 19:15 Clear 15 -9.7 8 -13.5 74 74 Calm 30.42 1030 10 16.0934 0 0
7:35 pm 19:35 Clear 11 -11.8 6 -14.2 83 83 SSW 6 9 30.45 1031 10 16.0934 0 0
7:55 pm 19:55 Clear 13 -10.5 8 -13.6 78 78 SSW 7 11 30.45 1031 10 16.0934 0 0
8:15 pm 20:15 Clear 13 -10.4 7 -14.1 75 75 SSW 5 7 30.45 1031 10 16.0934 0 0
8:35 pm 20:35 Clear 13 -10.5 7 -14.1 75 75 SSW 6 9 30.45 1031 10 16.0934 0 0
8:55 pm 20:55 Clear 13 -10.5 7 -14 76 76 S 7 11 30.45 1031 10 16.0934 0 0
9:15 pm 21:15 Clear 13 -10.4 7 -14.1 75 75 S 6 9 30.45 1031 10 16.0934 0 0
9:35 pm 21:35 Clear 13 -10.5 6 -14.3 74 74 SSW 6 9 30.45 1031 10 16.0934 0 0
9:55 pm 21:55 Clear 13 -10.5 6 -14.4 73 73 SSW 7 11 30.39 1029 10 16.0934 0 0
10:15 pm 22:15 Clear 13 -10.5 6 -14.2 75 75 SSW 7 11 30.39 1029 10 16.0934 0 0
10:35 pm 22:35 Clear 13 -10.4 7 -13.9 76 76 S 9 15 30.39 1029 10 16.0934 0 0
10:55 pm 22:55 Clear 15 -9.6 8 -13.5 74 74 S 9 15 30.39 1029 10 16.0934 0 0
11:15 pm 23:15 Clear 14 -10.2 8 -13.1 80 80 S 10 17 30.39 1029 10 16.0934 0 0
11:35 pm 23:35 Clear 13 -10.3 9 -13 81 81 S 8 13 30.36 1028 10 16.0934 0 0
11:55 pm 23:55 Clear 13 -10.5 9 -13 82 82 S 8 13 30.36 1028 10 16.0934 0 0

Powered by AerisWeather